SCP
0 0 0 0 0 0 0 0 0 0 0 0 0 0 0 0 0 0 0 0 0 0 0 0 1 1 1 0 0 0 0 0 0 0 0 0 0 0 0 0 0 0 0
0 0 0 0 0 0 0 0 0 0 0 0 0 0 0 0 0 0 0 0 0 0 0 0 1 1 1 0 0 0 0 0 0 0 0 0 0 0 0 0 0 0 0
0 0 0 0 0 0 0 0 0 0 0 0 0 0 0 0 0 0 0 0 0 0 0 0 0 1 1 1 0 0 0 0 0 0 0 0 0 0 0 0 0 0 0
0 0 0 0 0 0 0 0 0 0 0 0 0 0 0 0 0 0 0 0 0 0 0 0 0 0 1 1 0 0 0 0 0 0 0 0 0 0 0 0 0 0 0
1 1 0 0 0 0 0 0 0 0 0 0 0 0 0 0 0 0 0 0 0 0 0 0 0 0 0 1 1 0 1 0 0 0 0 0 0 0 0 0 0 0 0
-0 0 1 1 1 1 1 0 0 0 0 0 0 0 0 0 0 0 0 0 0 0 0 0 0 0 0 1 1 1 1 0 0 0 0 0 0 0 0 0 0 0 0
3 2 0 1 1 0 1 0 0 0 0 0 0 0 0 0 0 0 0 0 0 0 0 0 0 0 0 0 1 0 0 1 1 0 0 0 0 0 0 0 0 0 0
2 1 1 1 1 0 0 0 0 0 0 0 0 0 0 0 0 0 0 -0 0 -0 0 0 0 0 0 0 0 0 0 0 1 1 0 0 0 0 0 0 0 0 0
1 1 0 0 -0 0 0 -0 0 0 1 0 -0 0 0 0 0 0 0 -0 -0 -0 0 0 0 0 0 1 0 0 0 0 1 1 1 0 0 0 0 0 0 0 0
1 1 0 0 1 2 0 -0 0 0 0 0 -0 0 0 0 0 0 0 0 -0 -0 -0 0 0 0 0 0 0 0 0 0 1 1 1 0 0 0 0 0 0 0 0
0 0 1 1 1 2 1 1 1 0 -0 0 0 -0 0 0 0 0 1 0 0 -1 -0 -0 0 0 0 0 0 0 0 0 0 0 0 0 0 0 0 0 0 0 0
0 0 0 0 0 0 1 2 2 0 0 0 0 0 0 0 0 0 0 0 -0 -0 -1 -0 0 0 1 0 0 0 0 0 0 0 0 0 0 0 0 0 0 0 -0
0 0 0 0 0 0 2 2 3 2 -0 -0 -1 -0 0 1 0 0 0 0 0 -0 -1 -1 -0 0 0 0 0 0 0 0 0 0 0 0 0 0 0 0 0 0 -0
0 0 0 0 0 0 0 0 1 1 1 1 -0 -0 -1 -0 0 0 1 1 0 0 -1 -1 -0 0 0 0 0 0 0 0 0 0 0 0 0 0 0 0 0 0 0
0 0 0 0 0 0 0 1 0 1 1 1 1 1 1 1 1 1 1 1 0 0 -0 -0 -0 0 0 0 0 0 0 0 0 0 0 0 0 0 0 0 0 0 0
0 0 0 0 0 0 0 0 0 0 0 0 0 1 2 1 1 0 1 1 1 0 0 -0 -0 0 0 0 0 0 0 0 0 0 0 0 0 0 0 0 0 0 0
0 0 0 0 0 0 0 0 0 0 0 0 0 0 0 0 1 1 1 1 1 1 -0 -0 0 0 0 0 0 0 0 0 0 0 0 0 0 0 0 0 0 0 0
0 0 0 0 0 0 0 0 0 0 0 0 0 0 0 0 0 1 1 1 1 0 1 0 0 0 0 0 0 0 0 0 0 0 0 0 0 0 0 0 0 0 0
0 0 0 0 0 0 0 0 0 0 0 0 0 0 0 0 0 0 0 0 1 1 1 1 0 0 0 0 0 0 0 0 0 0 0 0 0 0 0 0 0 0 0
0 0 0 0 0 0 0 0 0 0 0 0 0 0 0 0 0 0 0 0 0 0 1 0 0 0 0 0 0 0 0 0 0 0 0 0 0 0 0 0 0 0 0
0 0 0 0 0 0 0 0 0 0 0 0 0 0 0 0 -0 0 0 0 0 0 0 0 0 0 0 0 0 0 0 0 0 0 0 0 0 0 0 0 0 0 0
0 0 0 0 0 0 0 0 0 0 0 0 0 0 0 0 -0 -0 -0 0 0 0 0 0 0 0 0 0 0 0 0 0 0 0 0 0 0 0 0 0 0 0 0
0 0 0 0 0 0 0 0 0 0 0 0 0 0 0 0 0 0 0 0 0 0 0 0 0 0 0 0 0 0 0 0 0 0 0 0 0 0 0 0 0 0 0
0 0 0 0 0 0 0 0 0 0 0 0 0 0 0 0 0 0 0 0 0 0 0 0 0 0 0 0 0 0 0 0 0 0 0 0 0 0 0 0 0 0 0
0 0 0 0 0 0 0 0 0 0 0 0 0 0 0 0 0 0 0 0 0 0 0 0 0 0 0 0 0 0 0 0 0 0 0 0 0 0 0 0 0 0 0
0 0 0 0 0 0 0 0 0 0 0 0 0 0 0 0 -0 -0 0 0 0 0 0 0 0 0 0 0 0 0 0 0 0 0 0 0 0 0 0 0 0 0 0
Wind_Speed_500mb
48 43 41 37 32 28 24 22 22 22 19 12 10 15 13 12 11 13 14 15 18 16 14 14 13 21 23 22 15 15 15 21 23 25 26 28 29 28 27 27 28 30 31
51 46 46 42 38 35 31 29 28 30 27 24 19 22 21 23 20 20 19 19 21 20 17 14 14 17 21 23 21 19 20 24 28 28 27 28 30 29 30 30 30 33 36
49 50 49 47 43 41 38 36 32 31 33 32 31 30 31 30 30 26 21 21 22 22 21 17 14 18 24 24 24 23 20 22 29 27 23 26 30 29 31 33 33 35 39
56 55 55 52 47 42 42 43 35 31 34 38 38 37 35 36 32 27 27 23 24 24 24 21 17 17 20 23 21 28 24 19 23 25 24 25 28 29 31 34 33 36 38
47 49 51 53 48 39 35 34 35 31 31 34 38 42 42 41 36 30 30 27 26 22 25 24 21 22 22 29 24 29 27 23 21 26 27 27 26 29 32 34 33 34 37
46 44 34 40 41 43 30 29 36 37 35 40 40 48 47 45 38 28 25 19 17 13 17 24 25 25 30 31 31 33 31 29 28 26 27 29 30 30 30 33 34 34 36
92 69 60 44 51 56 37 29 38 39 41 45 53 54 51 31 25 21 16 7 2 10 16 21 25 26 29 34 29 30 32 32 37 33 28 30 31 30 31 31 33 33 35
85 85 90 86 61 55 38 33 38 37 40 42 50 55 37 33 6 3 21 4 22 18 13 31 27 28 27 34 30 27 30 33 35 32 25 25 30 29 31 31 32 33 33
72 70 75 52 96 63 49 49 39 37 38 36 40 47 32 15 46 25 17 16 21 19 39 35 29 28 28 33 30 29 29 27 31 33 26 23 24 27 30 31 31 33 33
58 62 66 64 82 94 81 77 57 48 46 40 46 45 50 58 37 32 29 29 38 38 49 38 47 36 37 34 34 31 28 28 29 33 27 26 24 25 26 30 30 33 33
55 55 58 55 56 70 67 81 74 72 65 55 44 42 45 57 63 53 61 51 59 67 50 54 38 35 42 39 38 38 33 30 29 28 27 26 25 25 25 27 31 33 33
52 49 48 52 56 53 57 62 77 71 73 70 64 53 56 61 64 59 57 74 77 86 80 75 71 62 55 48 50 45 39 35 32 27 30 28 25 27 25 26 28 31 32
47 46 50 54 55 62 67 68 74 89 79 74 70 72 83 81 66 67 74 87 88 86 88 84 88 73 52 51 49 44 45 41 33 30 28 29 29 28 27 25 25 26 28
46 52 58 57 52 51 52 55 59 70 85 68 82 71 65 69 70 71 82 78 82 82 82 92 90 81 58 48 55 48 48 43 37 33 32 31 31 31 28 26 24 26 29
41 38 36 39 45 49 51 51 52 52 56 66 69 68 67 67 70 68 76 78 76 71 81 83 83 81 62 49 50 47 53 45 41 35 35 35 33 33 29 28 25 27 30
32 32 30 30 31 36 40 41 42 42 44 48 49 54 61 58 52 53 60 64 60 61 65 79 80 78 70 64 35 38 59 48 44 38 36 36 34 33 31 30 27 28 32
27 26 23 22 18 11 17 22 23 25 32 37 40 45 49 48 53 54 46 48 55 62 63 68 68 69 71 65 44 57 56 48 45 41 38 38 34 31 32 32 28 30 31
31 27 25 23 18 14 12 10 14 18 23 26 28 35 40 43 45 48 47 54 54 65 63 65 70 70 73 65 33 48 54 49 46 43 40 37 34 33 35 36 31 31 32
43 42 42 38 33 28 25 24 25 27 29 28 29 31 31 36 44 45 41 42 44 46 56 60 68 69 75 54 35 54 54 48 47 43 41 37 36 36 37 39 36 34 34
57 52 52 52 49 44 40 36 37 38 40 38 36 37 36 39 41 44 50 53 48 50 50 60 64 66 66 56 37 54 52 47 47 44 40 37 38 37 40 41 40 40 38
73 64 63 60 58 56 52 48 46 46 45 45 46 50 48 49 47 48 51 55 58 53 52 58 65 69 62 51 44 53 45 45 46 43 40 36 37 37 40 42 42 40 38
85 81 77 72 67 65 63 57 53 53 51 52 52 55 60 63 60 56 55 52 55 54 61 59 67 71 61 43 45 52 43 49 48 44 39 32 34 35 36 38 40 39 40
78 85 83 81 83 76 70 62 58 58 57 58 61 63 67 67 65 64 61 56 53 49 58 66 71 64 44 58 58 50 46 49 46 34 22 27 28 30 34 35 36 37 38
65 66 70 69 68 70 69 66 64 63 64 67 71 73 74 71 68 65 59 57 49 44 54 57 57 42 44 38 46 37 39 43 40 32 27 24 23 26 28 30 35 36 36
75 76 75 74 75 78 74 74 70 69 72 75 75 79 79 72 64 58 59 51 45 50 38 42 48 45 43 36 29 35 46 43 42 38 34 26 23 20 22 23 26 30 35
77 80 85 86 87 89 83 80 76 76 80 80 80 80 81 74 65 55 49 43 48 53 43 52 54 44 31 42 35 37 43 47 45 36 38 36 30 22 12 23 26 27 27
Wind_Direction_500mb
227 230 233 238 244 251 259 262 262 267 271 258 250 271 275 278 296 304 294 294 300 306 315 313 293 274 271 266 271 262 278 284 288 284 281 271 262 255 252 251 246 238 230
242 237 240 240 249 255 258 260 266 274 278 280 277 283 290 293 295 307 312 298 293 302 304 304 302 274 261 257 270 288 270 281 281 280 281 270 263 256 252 251 250 244 235
245 252 253 250 250 259 261 258 261 267 277 283 287 287 289 292 292 302 306 301 293 298 300 295 291 273 258 256 270 272 277 289 282 280 284 271 262 259 255 250 252 249 244
255 252 255 254 256 257 265 264 256 258 275 286 292 296 291 293 292 299 298 310 307 299 294 288 279 267 247 252 271 279 280 287 289 277 283 282 267 261 257 254 253 250 250
260 260 262 261 264 251 254 268 273 274 279 288 296 298 297 286 287 286 297 299 301 293 292 283 279 261 248 251 269 284 277 277 281 275 276 279 277 264 257 257 255 250 251
286 273 269 272 269 262 248 268 287 289 290 298 304 305 302 294 286 291 296 288 286 289 294 295 285 271 255 252 261 279 285 276 273 279 276 273 277 270 259 256 257 252 249
244 254 273 275 263 260 256 261 279 286 291 300 307 309 317 306 300 311 285 311 230 360 353 319 297 285 265 257 262 272 280 276 276 284 286 278 270 269 260 257 255 251 250
242 232 230 247 259 262 261 266 269 282 286 297 307 311 325 322 11 291 312 277 302 316 329 343 316 291 281 267 261 270 274 275 286 283 288 276 271 262 258 254 255 250 249
231 241 245 225 268 266 286 298 274 279 291 294 305 314 304 309 332 327 267 277 351 333 315 317 320 312 285 273 256 264 269 271 279 279 283 283 272 264 257 255 253 250 249
243 246 232 240 243 241 277 271 275 280 278 290 299 300 306 301 293 306 309 288 316 332 339 324 299 311 291 268 266 260 263 270 276 271 281 289 277 266 258 254 251 252 250
233 225 228 237 247 249 240 253 256 256 266 271 286 293 306 309 294 280 284 295 305 306 325 328 316 297 302 280 274 263 257 265 268 265 271 281 287 274 264 251 251 252 248
232 230 227 227 230 232 237 243 238 267 270 275 272 284 291 292 292 292 287 296 304 296 296 308 316 306 288 277 288 266 256 257 262 269 266 278 281 278 269 253 248 250 243
243 238 238 242 247 245 246 251 250 249 263 274 288 280 273 277 285 286 289 295 291 293 290 295 303 316 300 279 264 264 255 250 257 261 269 271 270 276 266 250 244 245 232
258 254 252 251 251 251 251 254 249 250 259 265 273 275 285 275 283 289 280 283 281 282 288 292 298 312 310 279 273 262 256 246 251 255 267 272 269 271 261 238 244 237 228
259 259 252 249 250 251 253 255 255 254 247 252 258 269 273 273 275 278 278 270 273 272 274 282 294 306 306 291 278 264 255 243 246 254 264 273 270 266 252 234 239 232 230
256 256 252 245 245 249 252 257 265 265 261 260 265 265 264 267 269 270 270 277 269 275 276 270 286 299 300 291 282 281 252 243 242 253 262 271 270 261 243 233 236 230 232
248 247 244 239 235 234 240 245 258 273 276 274 270 268 270 272 271 275 279 281 280 280 291 285 286 293 297 289 271 266 244 241 244 251 260 269 265 253 238 232 234 229 231
235 241 237 233 233 240 248 259 285 312 313 303 301 286 277 274 274 275 276 276 283 274 289 285 287 286 292 291 254 258 241 238 243 248 259 268 262 248 236 230 233 233 233
241 242 243 240 245 254 262 272 288 297 306 312 307 310 304 289 282 281 281 280 279 277 277 276 282 285 289 279 247 248 231 236 239 249 259 265 257 249 240 233 233 236 238
243 244 247 248 248 252 257 268 279 286 295 304 304 298 306 308 306 296 285 277 279 281 280 280 279 285 277 269 247 239 231 235 243 250 261 260 256 248 241 236 235 237 240
248 245 246 250 252 253 255 261 270 277 284 293 300 304 306 304 303 305 295 283 277 279 281 278 276 276 269 244 244 249 244 239 247 254 260 259 252 247 240 234 236 237 235
251 250 248 248 249 252 253 259 267 271 276 281 289 297 304 303 301 297 292 287 276 273 274 274 276 270 262 236 259 248 244 237 245 256 256 254 251 244 239 237 239 236 234
251 251 252 253 256 252 251 258 267 271 277 282 284 288 295 295 291 293 291 288 278 259 261 267 261 262 221 243 248 258 236 239 252 259 253 248 251 244 242 238 237 233 234
254 254 253 251 250 250 253 254 259 263 271 280 287 293 294 293 292 291 288 284 281 261 258 250 242 228 229 240 264 247 242 245 246 244 236 238 247 250 252 243 236 234 234
253 252 253 252 254 254 250 251 254 263 272 280 287 292 294 290 289 289 284 278 276 265 259 240 218 237 235 245 220 235 232 233 231 232 223 229 242 246 247 247 246 237 237
257 252 251 255 257 253 247 248 256 265 274 282 290 292 289 286 292 285 272 271 266 259 257 236 224 237 249 230 212 220 232 233 231 230 226 225 238 245 249 247 243 246 245
Wind_Speed_850mb
48 43 41 37 32 28 24 22 22 22 19 12 10 15 13 12 11 13 14 15 18 16 14 14 13 21 23 22 15 15 15 21 23 25 26 28 29 28 27 27 28 30 31
51 46 46 42 38 35 31 29 28 30 27 24 19 22 21 23 20 20 19 19 21 20 17 14 14 17 21 23 21 19 20 24 28 28 27 28 30 29 30 30 30 33 36
49 50 49 47 43 41 38 36 32 31 33 32 31 30 31 30 30 26 21 21 22 22 21 17 14 18 24 24 24 23 20 22 29 27 23 26 30 29 31 33 33 35 39
56 55 55 52 47 42 42 43 35 31 34 38 38 37 35 36 32 27 27 23 24 24 24 21 17 17 20 23 21 28 24 19 23 25 24 25 28 29 31 34 33 36 38
47 49 51 53 48 39 35 34 35 31 31 34 38 42 42 41 36 30 30 27 26 22 25 24 21 22 22 29 24 29 27 23 21 26 27 27 26 29 32 34 33 34 37
46 44 34 40 41 43 30 29 36 37 35 40 40 48 47 45 38 28 25 19 17 13 17 24 25 25 30 31 31 33 31 29 28 26 27 29 30 30 30 33 34 34 36
92 69 60 44 51 56 37 29 38 39 41 45 53 54 51 31 25 21 16 7 2 10 16 21 25 26 29 34 29 30 32 32 37 33 28 30 31 30 31 31 33 33 35
85 85 90 86 61 55 38 33 38 37 40 42 50 55 37 33 6 3 21 4 22 18 13 31 27 28 27 34 30 27 30 33 35 32 25 25 30 29 31 31 32 33 33
72 70 75 52 96 63 49 49 39 37 38 36 40 47 32 15 46 25 17 16 21 19 39 35 29 28 28 33 30 29 29 27 31 33 26 23 24 27 30 31 31 33 33
58 62 66 64 82 94 81 77 57 48 46 40 46 45 50 58 37 32 29 29 38 38 49 38 47 36 37 34 34 31 28 28 29 33 27 26 24 25 26 30 30 33 33
55 55 58 55 56 70 67 81 74 72 65 55 44 42 45 57 63 53 61 51 59 67 50 54 38 35 42 39 38 38 33 30 29 28 27 26 25 25 25 27 31 33 33
52 49 48 52 56 53 57 62 77 71 73 70 64 53 56 61 64 59 57 74 77 86 80 75 71 62 55 48 50 45 39 35 32 27 30 28 25 27 25 26 28 31 32
47 46 50 54 55 62 67 68 74 89 79 74 70 72 83 81 66 67 74 87 88 86 88 84 88 73 52 51 49 44 45 41 33 30 28 29 29 28 27 25 25 26 28
46 52 58 57 52 51 52 55 59 70 85 68 82 71 65 69 70 71 82 78 82 82 82 92 90 81 58 48 55 48 48 43 37 33 32 31 31 31 28 26 24 26 29
41 38 36 39 45 49 51 51 52 52 56 66 69 68 67 67 70 68 76 78 76 71 81 83 83 81 62 49 50 47 53 45 41 35 35 35 33 33 29 28 25 27 30
32 32 30 30 31 36 40 41 42 42 44 48 49 54 61 58 52 53 60 64 60 61 65 79 80 78 70 64 35 38 59 48 44 38 36 36 34 33 31 30 27 28 32
27 26 23 22 18 11 17 22 23 25 32 37 40 45 49 48 53 54 46 48 55 62 63 68 68 69 71 65 44 57 56 48 45 41 38 38 34 31 32 32 28 30 31
31 27 25 23 18 14 12 10 14 18 23 26 28 35 40 43 45 48 47 54 54 65 63 65 70 70 73 65 33 48 54 49 46 43 40 37 34 33 35 36 31 31 32
43 42 42 38 33 28 25 24 25 27 29 28 29 31 31 36 44 45 41 42 44 46 56 60 68 69 75 54 35 54 54 48 47 43 41 37 36 36 37 39 36 34 34
57 52 52 52 49 44 40 36 37 38 40 38 36 37 36 39 41 44 50 53 48 50 50 60 64 66 66 56 37 54 52 47 47 44 40 37 38 37 40 41 40 40 38
73 64 63 60 58 56 52 48 46 46 45 45 46 50 48 49 47 48 51 55 58 53 52 58 65 69 62 51 44 53 45 45 46 43 40 36 37 37 40 42 42 40 38
85 81 77 72 67 65 63 57 53 53 51 52 52 55 60 63 60 56 55 52 55 54 61 59 67 71 61 43 45 52 43 49 48 44 39 32 34 35 36 38 40 39 40
78 85 83 81 83 76 70 62 58 58 57 58 61 63 67 67 65 64 61 56 53 49 58 66 71 64 44 58 58 50 46 49 46 34 22 27 28 30 34 35 36 37 38
65 66 70 69 68 70 69 66 64 63 64 67 71 73 74 71 68 65 59 57 49 44 54 57 57 42 44 38 46 37 39 43 40 32 27 24 23 26 28 30 35 36 36
75 76 75 74 75 78 74 74 70 69 72 75 75 79 79 72 64 58 59 51 45 50 38 42 48 45 43 36 29 35 46 43 42 38 34 26 23 20 22 23 26 30 35
77 80 85 86 87 89 83 80 76 76 80 80 80 80 81 74 65 55 49 43 48 53 43 52 54 44 31 42 35 37 43 47 45 36 38 36 30 22 12 23 26 27 27
Wind_Direction_850mb
227 230 233 238 244 251 259 262 262 267 271 258 250 271 275 278 296 304 294 294 300 306 315 313 293 274 271 266 271 262 278 284 288 284 281 271 262 255 252 251 246 238 230
242 237 240 240 249 255 258 260 266 274 278 280 277 283 290 293 295 307 312 298 293 302 304 304 302 274 261 257 270 288 270 281 281 280 281 270 263 256 252 251 250 244 235
245 252 253 250 250 259 261 258 261 267 277 283 287 287 289 292 292 302 306 301 293 298 300 295 291 273 258 256 270 272 277 289 282 280 284 271 262 259 255 250 252 249 244
255 252 255 254 256 257 265 264 256 258 275 286 292 296 291 293 292 299 298 310 307 299 294 288 279 267 247 252 271 279 280 287 289 277 283 282 267 261 257 254 253 250 250
260 260 262 261 264 251 254 268 273 274 279 288 296 298 297 286 287 286 297 299 301 293 292 283 279 261 248 251 269 284 277 277 281 275 276 279 277 264 257 257 255 250 251
286 273 269 272 269 262 248 268 287 289 290 298 304 305 302 294 286 291 296 288 286 289 294 295 285 271 255 252 261 279 285 276 273 279 276 273 277 270 259 256 257 252 249
244 254 273 275 263 260 256 261 279 286 291 300 307 309 317 306 300 311 285 311 230 360 353 319 297 285 265 257 262 272 280 276 276 284 286 278 270 269 260 257 255 251 250
242 232 230 247 259 262 261 266 269 282 286 297 307 311 325 322 11 291 312 277 302 316 329 343 316 291 281 267 261 270 274 275 286 283 288 276 271 262 258 254 255 250 249
231 241 245 225 268 266 286 298 274 279 291 294 305 314 304 309 332 327 267 277 351 333 315 317 320 312 285 273 256 264 269 271 279 279 283 283 272 264 257 255 253 250 249
243 246 232 240 243 241 277 271 275 280 278 290 299 300 306 301 293 306 309 288 316 332 339 324 299 311 291 268 266 260 263 270 276 271 281 289 277 266 258 254 251 252 250
233 225 228 237 247 249 240 253 256 256 266 271 286 293 306 309 294 280 284 295 305 306 325 328 316 297 302 280 274 263 257 265 268 265 271 281 287 274 264 251 251 252 248
232 230 227 227 230 232 237 243 238 267 270 275 272 284 291 292 292 292 287 296 304 296 296 308 316 306 288 277 288 266 256 257 262 269 266 278 281 278 269 253 248 250 243
243 238 238 242 247 245 246 251 250 249 263 274 288 280 273 277 285 286 289 295 291 293 290 295 303 316 300 279 264 264 255 250 257 261 269 271 270 276 266 250 244 245 232
258 254 252 251 251 251 251 254 249 250 259 265 273 275 285 275 283 289 280 283 281 282 288 292 298 312 310 279 273 262 256 246 251 255 267 272 269 271 261 238 244 237 228
259 259 252 249 250 251 253 255 255 254 247 252 258 269 273 273 275 278 278 270 273 272 274 282 294 306 306 291 278 264 255 243 246 254 264 273 270 266 252 234 239 232 230
256 256 252 245 245 249 252 257 265 265 261 260 265 265 264 267 269 270 270 277 269 275 276 270 286 299 300 291 282 281 252 243 242 253 262 271 270 261 243 233 236 230 232
248 247 244 239 235 234 240 245 258 273 276 274 270 268 270 272 271 275 279 281 280 280 291 285 286 293 297 289 271 266 244 241 244 251 260 269 265 253 238 232 234 229 231
235 241 237 233 233 240 248 259 285 312 313 303 301 286 277 274 274 275 276 276 283 274 289 285 287 286 292 291 254 258 241 238 243 248 259 268 262 248 236 230 233 233 233
241 242 243 240 245 254 262 272 288 297 306 312 307 310 304 289 282 281 281 280 279 277 277 276 282 285 289 279 247 248 231 236 239 249 259 265 257 249 240 233 233 236 238
243 244 247 248 248 252 257 268 279 286 295 304 304 298 306 308 306 296 285 277 279 281 280 280 279 285 277 269 247 239 231 235 243 250 261 260 256 248 241 236 235 237 240
248 245 246 250 252 253 255 261 270 277 284 293 300 304 306 304 303 305 295 283 277 279 281 278 276 276 269 244 244 249 244 239 247 254 260 259 252 247 240 234 236 237 235
251 250 248 248 249 252 253 259 267 271 276 281 289 297 304 303 301 297 292 287 276 273 274 274 276 270 262 236 259 248 244 237 245 256 256 254 251 244 239 237 239 236 234
251 251 252 253 256 252 251 258 267 271 277 282 284 288 295 295 291 293 291 288 278 259 261 267 261 262 221 243 248 258 236 239 252 259 253 248 251 244 242 238 237 233 234
254 254 253 251 250 250 253 254 259 263 271 280 287 293 294 293 292 291 288 284 281 261 258 250 242 228 229 240 264 247 242 245 246 244 236 238 247 250 252 243 236 234 234
253 252 253 252 254 254 250 251 254 263 272 280 287 292 294 290 289 289 284 278 276 265 259 240 218 237 235 245 220 235 232 233 231 232 223 229 242 246 247 247 246 237 237
257 252 251 255 257 253 247 248 256 265 274 282 290 292 289 286 292 285 272 271 266 259 257 236 224 237 249 230 212 220 232 233 231 230 226 225 238 245 249 247 243 246 245